M I D A S
Marine Information and Data Acquisition System
Tripno 65 of the Zeeleeuw from 2001-10-30 07:18:24 to 2001-10-30 16:50:00
Back to CruiseResearch ActivitiesStationsMapUnderway DataData graphs

EquipmentUnitsComment
TimeDGPSUTC
LatitudeDGPSDM.mWGS84
LongitudeDGPSDM.mWGS84
TemperatureSBE03/SBE38deg celciusITS90
ConductivitySBE21S/mITS90
SalinitySBE21 Practical Salinity Units
ChlorophylAChelsea fluorimeterg/lCalibrated in Aceton
Missing or incorrect values are displayed as -999
Sea surface data collected by the RV Zeeleeuw from 2001-10-30 07:18:24 to 2001-10-30 16:50:00
                                                                                    Next 1000 lines
Time Latitude Longitude Temperature Conductivity Salinity ChlorophylA
2001-10-30 07:18:34 51°13.639 2°56.013 19.027352 0.134574 0.757599  
2001-10-30 07:18:39 51°13.639 2°56.013 19.027352 0.134574 0.757599  
2001-10-30 07:18:44 51°13.639 2°56.013 19.028255 0.134574 0.757612  
2001-10-30 07:18:49 51°13.639 2°56.013 19.028624 0.134574 0.757624  
2001-10-30 07:18:54 51°13.639 2°56.013 19.028624 0.134574 0.757624  
2001-10-30 07:19:18 51°13.639 2°56.013 19.025752 0.134574 0.757649  
2001-10-30 07:19:21 51°13.639 2°56.013 19.025752 0.134574 0.757649  
2001-10-30 07:19:24 51°13.639 2°56.013 19.025711 0.134574 0.757661  
2001-10-30 07:19:29 51°13.639 2°56.013 19.02608 0.134574 0.757674  
2001-10-30 07:19:34 51°13.639 2°56.013 19.026162 0.134574 0.757674  
2001-10-30 07:19:38 51°13.639 2°56.013 19.025998 0.134574 0.757674  
2001-10-30 07:19:44 51°13.639 2°56.013 19.025177 0.134574 0.757686  
2001-10-30 07:19:49 51°13.639 2°56.013 19.025177 0.134574 0.757686  
2001-10-30 07:19:54 51°13.639 2°56.013 19.025465 0.134574 0.757699  
2001-10-30 07:19:59 51°13.639 2°56.013 19.024316 0.134574 0.757711  
2001-10-30 07:20:04 51°13.639 2°56.013 19.024275 0.134574 0.757711  
2001-10-30 07:20:09 51°13.639 2°56.013 19.024028 0.134574 0.757711  
2001-10-30 07:20:14 51°13.639 2°56.013 19.02329 0.134574 0.757724  
2001-10-30 07:20:19 51°13.639 2°56.013 19.02329 0.134574 0.757724  
2001-10-30 07:20:24 51°13.639 2°56.013 19.022839 0.134574 0.757724  
2001-10-30 07:20:29 51°13.639 2°56.013 19.023741 0.134574 0.757749  
2001-10-30 07:20:34 51°13.639 2°56.013 19.022305 0.134574 0.757749  
2001-10-30 07:20:39 51°13.639 2°56.013 19.022674 0.134574 0.757761  
2001-10-30 07:20:44 51°13.639 2°56.013 19.023946 0.134574 0.757761  
2001-10-30 07:20:49 51°13.639 2°56.013 19.023946 0.134574 0.757761  
2001-10-30 07:20:54 51°13.639 2°56.013 19.025218 0.134574 0.757761  
2001-10-30 07:20:59 51°13.639 2°56.013 19.023495 0.134574 0.757774  
2001-10-30 07:21:04 51°13.638 2°56.013 19.023044 0.134574 0.757786  
2001-10-30 07:21:09 51°13.639 2°56.013 19.021977 0.134574 0.757786  
2001-10-30 07:21:14 51°13.639 2°56.013 19.02132 0.134475 0.757217  
2001-10-30 07:21:19 51°13.639 2°56.013 19.02132 0.134475 0.757217  
2001-10-30 07:21:24 51°13.639 2°56.013 19.02169 0.134574 0.757811  
2001-10-30 07:21:29 51°13.639 2°56.013 19.02169 0.134475 0.75723  
2001-10-30 07:21:34 51°13.639 2°56.013 19.02169 0.134475 0.757242  
2001-10-30 07:21:39 51°13.639 2°56.014 19.022141 0.134574 0.757824  
2001-10-30 07:21:44 51°13.639 2°56.014 19.02329 0.134475 0.757255  
2001-10-30 07:21:49 51°13.639 2°56.014 19.02329 0.134475 0.757255  
2001-10-30 07:21:54 51°13.639 2°56.014 19.023864 0.134475 0.757255  
2001-10-30 07:21:59 51°13.639 2°56.014 19.02329 0.134475 0.757267  
2001-10-30 07:22:04 51°13.639 2°56.014 19.023946 0.134574 0.757849  
2001-10-30 07:22:09 51°13.639 2°56.014 19.023577 0.134475 0.75728  
2001-10-30 07:22:14 51°13.639 2°56.014 19.023126 0.134475 0.757292  
2001-10-30 07:22:19 51°13.639 2°56.014 19.023126 0.134475 0.757292  
2001-10-30 07:22:24 51°13.639 2°56.014 19.023044 0.134475 0.757292  
2001-10-30 07:22:29 51°13.639 2°56.013 19.022141 0.134475 0.757304  
2001-10-30 07:22:34 51°13.639 2°56.013 19.021977 0.134475 0.757304  
2001-10-30 07:22:39 51°13.639 2°56.013 19.022141 0.134475 0.757317  
2001-10-30 07:22:44 51°13.639 2°56.013 19.023495 0.134475 0.757329  
2001-10-30 07:22:49 51°13.639 2°56.013 19.023495 0.134475 0.757329  
2001-10-30 07:22:54 51°13.639 2°56.013 19.022839 0.134475 0.757329  
2001-10-30 07:22:58 51°13.639 2°56.013 19.022962 0.134475 0.757342  
2001-10-30 07:23:04 51°13.639 2°56.014 19.021033 0.134475 0.757342  
2001-10-30 07:23:09 51°13.639 2°56.014 19.024275 0.134475 0.757342  
2001-10-30 07:23:14 51°13.639 2°56.014 19.017258 0.134475 0.757354  
2001-10-30 07:23:19 51°13.639 2°56.014 19.017258 0.134475 0.757354  
2001-10-30 07:23:24 51°13.639 2°56.014 19.022674 0.134475 0.757367  
2001-10-30 07:23:29 51°13.639 2°56.014 19.018284 0.134475 0.757367  
2001-10-30 07:23:34 51°13.639 2°56.014 19.020253 0.134475 0.757379  
2001-10-30 07:23:39 51°13.639 2°56.013 19.020623 0.134475 0.757392  
2001-10-30 07:23:44 51°13.639 2°56.013 19.02132 0.134475 0.757392  
2001-10-30 07:23:49 51°13.639 2°56.013 19.02132 0.134475 0.757392  
2001-10-30 07:23:54 51°13.639 2°56.013 19.020623 0.134475 0.757392  
2001-10-30 07:23:59 51°13.639 2°56.013 19.021526 0.134475 0.757417  
2001-10-30 07:24:04 51°13.639 2°56.013 19.020623 0.134475 0.757417  
2001-10-30 07:24:09 51°13.639 2°56.013 19.021074 0.134475 0.757417  
2001-10-30 07:24:14 51°13.639 2°56.013 19.023044 0.134475 0.757429  
2001-10-30 07:24:19 51°13.639 2°56.013 19.023044 0.134475 0.757429  
2001-10-30 07:24:24 51°13.639 2°56.013 19.023413 0.134475 0.757429  
2001-10-30 07:24:29 51°13.639 2°56.013 19.025383 0.134475 0.757454  
2001-10-30 07:24:34 51°13.639 2°56.013 19.023413 0.134475 0.757442  
2001-10-30 07:24:39 51°13.639 2°56.014 19.020705 0.134475 0.757454  
2001-10-30 07:24:44 51°13.639 2°56.014 19.023741 0.134475 0.757467  
2001-10-30 07:24:49 51°13.639 2°56.014 19.023741 0.134475 0.757467  
2001-10-30 07:24:54 51°13.639 2°56.014 19.025013 0.134475 0.757479  
2001-10-30 07:24:59 51°13.639 2°56.014 19.025465 0.134475 0.757467  
2001-10-30 07:25:04 51°13.639 2°56.014 19.025465 0.134475 0.757492  
2001-10-30 07:25:09 51°13.639 2°56.014 19.025383 0.134475 0.757492  
2001-10-30 07:25:14 51°13.639 2°56.014 19.023823 0.134475 0.757504  
2001-10-30 07:25:19 51°13.639 2°56.014 19.023823 0.134475 0.757504  
2001-10-30 07:25:24 51°13.639 2°56.013 19.024849 0.134475 0.757516  
2001-10-30 07:25:29 51°13.639 2°56.013 19.023659 0.134475 0.757516  
2001-10-30 07:25:34 51°13.639 2°56.013 19.023495 0.134475 0.757516  
2001-10-30 07:25:39 51°13.639 2°56.013 19.023495 0.134475 0.757529  
2001-10-30 07:25:44 51°13.639 2°56.013 19.023372 0.134475 0.757541  
2001-10-30 07:25:49 51°13.639 2°56.013 19.023372 0.134475 0.757541  
2001-10-30 07:25:54 51°13.639 2°56.013 19.023864 0.134475 0.757541  
2001-10-30 07:25:59 51°13.639 2°56.013 19.024767 0.134475 0.757554  
2001-10-30 07:26:04 51°13.639 2°56.013 19.024398 0.134475 0.757554  
2001-10-30 07:26:09 51°13.639 2°56.013 19.023495 0.134475 0.757566  
2001-10-30 07:26:14 51°13.639 2°56.013 19.024275 0.134475 0.757579  
2001-10-30 07:26:19 51°13.639 2°56.013 19.024275 0.134475 0.757579  
2001-10-30 07:26:24 51°13.639 2°56.013 19.024603 0.134475 0.757566  
2001-10-30 07:26:29 51°13.639 2°56.013 19.025834 0.134475 0.757591  
2001-10-30 07:26:34 51°13.639 2°56.013 19.026901 0.134475 0.757591  
2001-10-30 07:26:40 51°13.639 2°56.013 19.025547 0.134475 0.757591  
2001-10-30 07:26:44 51°13.639 2°56.013 19.025998 0.134475 0.757604  
2001-10-30 07:26:49 51°13.639 2°56.013 19.025998 0.134475 0.757604  
2001-10-30 07:26:54 51°13.639 2°56.013 19.028501 0.134475 0.757604  
2001-10-30 07:26:59 51°13.639 2°56.013 19.028542 0.134475 0.757604  
2001-10-30 07:27:04 51°13.639 2°56.013 19.028501 0.134475 0.757629  
2001-10-30 07:27:09 51°13.639 2°56.013 19.02846 0.134475 0.757629  
2001-10-30 07:27:14 51°13.639 2°56.013 19.027557 0.134475 0.757641  
2001-10-30 07:27:19 51°13.639 2°56.013 19.027557 0.134475 0.757641  
2001-10-30 07:27:24 51°13.639 2°56.014 19.027557 0.134475 0.757641  
2001-10-30 07:27:29 51°13.639 2°56.014 19.026737 0.134475 0.757641  
2001-10-30 07:27:34 51°13.639 2°56.014 19.027721 0.134376 0.757072  
2001-10-30 07:27:39 51°13.639 2°56.014 19.028049 0.134475 0.757666  
2001-10-30 07:27:44 51°13.639 2°56.014 19.027762 0.134475 0.757666  
2001-10-30 07:27:49 51°13.639 2°56.014 19.027762 0.134475 0.757666  
2001-10-30 07:27:54 51°13.639 2°56.014 19.029444 0.134376 0.757084  
2001-10-30 07:27:59 51°13.639 2°56.014 19.029444 0.134475 0.757691  
2001-10-30 07:28:04 51°13.639 2°56.014 19.028993 0.134376 0.757097  
2001-10-30 07:28:09 51°13.639 2°56.014 19.030388 0.134376 0.757109  
2001-10-30 07:28:14 51°13.639 2°56.014 19.031127 0.134376 0.757122  
2001-10-30 07:28:18 51°13.639 2°56.014 19.031127 0.134376 0.757122  
2001-10-30 07:28:24 51°13.639 2°56.014 19.031127 0.134376 0.757122  
2001-10-30 07:28:29 51°13.639 2°56.014 19.031209 0.134376 0.757134  
2001-10-30 07:28:34 51°13.639 2°56.014 19.030963 0.134376 0.757147  
2001-10-30 07:28:39 51°13.639 2°56.014 19.030839 0.134376 0.757147  
2001-10-30 07:28:44 51°13.639 2°56.013 19.031291 0.134376 0.757147  
2001-10-30 07:28:49 51°13.639 2°56.013 19.031291 0.134376 0.757147  
2001-10-30 07:28:54 51°13.639 2°56.013 19.030839 0.134376 0.757159  
2001-10-30 07:28:59 51°13.639 2°56.013 19.030839 0.134376 0.757159  
2001-10-30 07:29:04 51°13.639 2°56.013 19.030511 0.134376 0.757172  
2001-10-30 07:29:09 51°13.639 2°56.013 19.031127 0.134376 0.757184  
2001-10-30 07:29:14 51°13.639 2°56.013 19.031947 0.134376 0.757172  
2001-10-30 07:29:19 51°13.639 2°56.014 19.031947 0.134376 0.757172  
2001-10-30 07:29:24 51°13.639 2°56.014 19.034081 0.134376 0.757197  
2001-10-30 07:29:29 51°13.639 2°56.014 19.033957 0.134376 0.757197  
2001-10-30 07:29:34 51°13.639 2°56.014 19.033178 0.134376 0.757209  
2001-10-30 07:29:39 51°13.639 2°56.014 19.033547 0.134376 0.757209  
2001-10-30 07:29:44 51°13.639 2°56.014 19.033752 0.134376 0.757209  
2001-10-30 07:29:49 51°13.639 2°56.014 19.033752 0.134376 0.757209  
2001-10-30 07:29:54 51°13.639 2°56.014 19.033999 0.134376 0.757222  
2001-10-30 07:29:59 51°13.639 2°56.014 19.035722 0.134376 0.757234  
2001-10-30 07:30:04 51°13.639 2°56.014 19.03445 0.134376 0.757234  
2001-10-30 07:30:09 51°13.639 2°56.014 19.035065 0.134376 0.757247  
2001-10-30 07:30:14 51°13.639 2°56.014 19.035722 0.134376 0.757247  
2001-10-30 07:30:19 51°13.639 2°56.014 19.035722 0.134376 0.757247  
2001-10-30 07:30:24 51°13.639 2°56.014 19.036419 0.134376 0.757247  
2001-10-30 07:30:29 51°13.639 2°56.014 19.038019 0.134376 0.757259  
2001-10-30 07:30:34 51°13.639 2°56.013 19.03966 0.134376 0.757259  
2001-10-30 07:30:39 51°13.639 2°56.013 19.038757 0.134376 0.757272  
2001-10-30 07:30:44 51°13.639 2°56.013 19.03847 0.134376 0.757297  
2001-10-30 07:30:49 51°13.639 2°56.013 19.03847 0.134376 0.757297  
2001-10-30 07:30:54 51°13.639 2°56.013 19.037937 0.134376 0.757297  
2001-10-30 07:30:59 51°13.639 2°56.013 19.037732 0.134376 0.757297  
2001-10-30 07:31:04 51°13.639 2°56.013 19.04007 0.134376 0.757297  
2001-10-30 07:31:09 51°13.639 2°56.013 19.037239 0.134376 0.757309  
2001-10-30 07:31:14 51°13.639 2°56.013 19.039004 0.134376 0.757309  
2001-10-30 07:31:18 51°13.639 2°56.013 19.039004 0.134376 0.757309  
2001-10-30 07:31:24 51°13.639 2°56.013 19.039578 0.134376 0.757334  
2001-10-30 07:31:29 51°13.639 2°56.013 19.040439 0.134376 0.757334  
2001-10-30 07:31:34 51°13.639 2°56.013 19.039127 0.134376 0.757346  
2001-10-30 07:31:38 51°13.639 2°56.013 19.04007 0.134376 0.757346  
2001-10-30 07:31:44 51°13.639 2°56.013 19.040275 0.134376 0.757346  
2001-10-30 07:31:49 51°13.639 2°56.013 19.040275 0.134376 0.757346  
2001-10-30 07:31:54 51°13.639 2°56.013 19.040193 0.134376 0.757359  
2001-10-30 07:31:59 51°13.639 2°56.013 19.04085 0.134376 0.757371  
2001-10-30 07:32:04 51°13.639 2°56.013 19.039988 0.134376 0.757371  
2001-10-30 07:32:09 51°13.639 2°56.013 19.039824 0.134376 0.757371  
2001-10-30 07:32:14 51°13.639 2°56.013 19.039947 0.134376 0.757396  
2001-10-30 07:32:19 51°13.639 2°56.013 19.039947 0.134376 0.757396  
2001-10-30 07:32:24 51°13.639 2°56.013 19.039824 0.134376 0.757396  
2001-10-30 07:32:29 51°13.639 2°56.013 19.042778 0.134376 0.757409  
2001-10-30 07:32:34 51°13.639 2°56.013 19.04409 0.134376 0.757409  
2001-10-30 07:32:39 51°13.639 2°56.013 19.043516 0.134376 0.757409  
2001-10-30 07:32:44 51°13.639 2°56.013 19.043762 0.134376 0.757434  
2001-10-30 07:32:49 51°13.639 2°56.013 19.043762 0.134376 0.757434  
2001-10-30 07:32:54 51°13.639 2°56.013 19.043639 0.134376 0.757434  
2001-10-30 07:32:59 51°13.639 2°56.013 19.04368 0.134376 0.757434  
2001-10-30 07:33:04 51°13.639 2°56.013 19.044254 0.134376 0.757434  
2001-10-30 07:33:09 51°13.639 2°56.013 19.047208 0.134376 0.757446  
2001-10-30 07:33:14 51°13.639 2°56.013 19.047823 0.134376 0.757446  
2001-10-30 07:33:19 51°13.639 2°56.013 19.047823 0.134376 0.757446  
2001-10-30 07:33:24 51°13.639 2°56.013 19.045321 0.134376 0.757459  
2001-10-30 07:33:29 51°13.639 2°56.013 19.048602 0.134376 0.757459  
2001-10-30 07:33:34 51°13.639 2°56.013 19.050776 0.134376 0.757471  
2001-10-30 07:33:38 51°13.639 2°56.013 19.050981 0.134376 0.757484  
2001-10-30 07:33:44 51°13.639 2°56.013 19.048069 0.134376 0.757484  
2001-10-30 07:33:49 51°13.639 2°56.013 19.048069 0.134376 0.757484  
2001-10-30 07:33:54 51°13.639 2°56.013 19.048889 0.134278 0.756914  
2001-10-30 07:33:59 51°13.639 2°56.013 19.049259 0.134278 0.756927  
2001-10-30 07:34:04 51°13.639 2°56.013 19.04811 0.134376 0.757509  
2001-10-30 07:34:09 51°13.639 2°56.013 19.051391 0.134376 0.757496  
2001-10-30 07:34:14 51°13.639 2°56.013 19.052212 0.134376 0.757521  
2001-10-30 07:34:19 51°13.639 2°56.012 19.052212 0.134376 0.757521  
2001-10-30 07:34:24 51°13.639 2°56.012 19.052827 0.134376 0.757521  
2001-10-30 07:34:29 51°13.64 2°56.012 19.050612 0.134278 0.756952  
2001-10-30 07:34:34 51°13.64 2°56.012 19.051432 0.134278 0.756964  
2001-10-30 07:34:39 51°13.64 2°56.012 19.052417 0.134278 0.756964  
2001-10-30 07:34:44 51°13.64 2°56.012 19.051966 0.134278 0.756977  
2001-10-30 07:34:49 51°13.64 2°56.012 19.051966 0.134278 0.756977  
2001-10-30 07:34:54 51°13.64 2°56.012 19.053155 0.134278 0.756977  
2001-10-30 07:34:59 51°13.639 2°56.012 19.053729 0.134278 0.756989  
2001-10-30 07:35:04 51°13.64 2°56.012 19.054714 0.134278 0.756989  
2001-10-30 07:35:09 51°13.639 2°56.012 19.056354 0.134278 0.757014  
2001-10-30 07:35:14 51°13.64 2°56.012 19.057872 0.134278 0.757014  
2001-10-30 07:35:19 51°13.639 2°56.012 19.057872 0.134278 0.757014  
2001-10-30 07:35:24 51°13.639 2°56.012 19.059143 0.134278 0.757014  
2001-10-30 07:35:29 51°13.64 2°56.012 19.053852 0.134278 0.757027  
2001-10-30 07:35:34 51°13.64 2°56.013 19.056641 0.134278 0.757027  
2001-10-30 07:35:39 51°13.639 2°56.012 19.058856 0.134278 0.757039  
2001-10-30 07:35:44 51°13.64 2°56.012 19.055001 0.134278 0.757064  
2001-10-30 07:35:49 51°13.64 2°56.012 19.055001 0.134278 0.757064  
2001-10-30 07:35:54 51°13.64 2°56.012 19.05984 0.134278 0.757052  
2001-10-30 07:35:59 51°13.64 2°56.012 19.056641 0.134278 0.757064  
2001-10-30 07:36:04 51°13.64 2°56.012 19.055452 0.134278 0.757052  
2001-10-30 07:36:09 51°13.64 2°56.012 19.057872 0.134278 0.757076  
2001-10-30 07:36:14 51°13.64 2°56.012 19.056641 0.134278 0.757089  
2001-10-30 07:36:19 51°13.64 2°56.012 19.056641 0.134278 0.757089  
2001-10-30 07:36:24 51°13.64 2°56.012 19.058405 0.134278 0.757089  
2001-10-30 07:36:29 51°13.64 2°56.012 19.06185 0.134278 0.757101  
2001-10-30 07:36:34 51°13.64 2°56.012 19.062834 0.134278 0.757101  
2001-10-30 07:36:39 51°13.64 2°56.012 19.064679 0.134278 0.757126  
2001-10-30 07:36:44 51°13.64 2°56.012 19.06226 0.134278 0.757126  
2001-10-30 07:36:49 51°13.64 2°56.012 19.06226 0.134278 0.757126  
2001-10-30 07:36:54 51°13.64 2°56.012 19.061275 0.134278 0.757114  
2001-10-30 07:36:59 51°13.639 2°56.012 19.061563 0.134278 0.757139  
2001-10-30 07:37:04 51°13.639 2°56.011 19.06185 0.134278 0.757126  
2001-10-30 07:37:09 51°13.639 2°56.011 19.06226 0.134278 0.757139  
2001-10-30 07:37:13 51°13.64 2°56.011 19.062752 0.134278 0.757151  
2001-10-30 07:37:19 51°13.64 2°56.011 19.062752 0.134278 0.757151  
2001-10-30 07:37:24 51°13.64 2°56.011 19.065622 0.134278 0.757164  
2001-10-30 07:37:29 51°13.64 2°56.011 19.06513 0.134278 0.757164  
2001-10-30 07:37:34 51°13.64 2°56.011 19.066484 0.134278 0.757164  
2001-10-30 07:37:39 51°13.64 2°56.011 19.067386 0.134278 0.757176  
2001-10-30 07:37:44 51°13.64 2°56.011 19.065581 0.134278 0.757189  
2001-10-30 07:37:49 51°13.64 2°56.011 19.065581 0.134278 0.757189  
2001-10-30 07:37:54 51°13.64 2°56.011 19.065704 0.134278 0.757189  
2001-10-30 07:37:59 51°13.639 2°56.011 19.069846 0.134278 0.757201  
2001-10-30 07:38:04 51°13.639 2°56.01 19.071691 0.134278 0.757214  
2001-10-30 07:38:09 51°13.639 2°56.01 19.073126 0.134278 0.757214  
2001-10-30 07:38:14 51°13.639 2°56.011 19.069805 0.134278 0.757214  
2001-10-30 07:38:19 51°13.639 2°56.01 19.069805 0.134278 0.757214  
2001-10-30 07:38:24 51°13.639 2°56.01 19.070912 0.134278 0.757226  
2001-10-30 07:38:29 51°13.639 2°56.01 19.073659 0.134278 0.757239  
2001-10-30 07:38:34 51°13.639 2°56.01 -999 0.134278 0.757239  
2001-10-30 07:38:39 51°13.639 2°56.01 31.903061 0.134278 0.757239  
2001-10-30 07:38:44 51°13.639 2°56.01 21.417022 0.134278 0.757239  
2001-10-30 07:38:49 51°13.639 2°56.01 21.417022 0.134278 0.757239  
2001-10-30 07:38:54 51°13.639 2°56.009 21.254858 0.134278 0.757239  
2001-10-30 07:38:59 51°13.639 2°56.009 21.126501 0.134278 0.757264  
2001-10-30 07:39:04 51°13.639 2°56.009 21.24961 0.134278 0.757276  
2001-10-30 07:39:09 51°13.639 2°56.009 21.220305 0.134278 0.757289  
2001-10-30 07:39:14 51°13.638 2°56.008 21.350835 0.134278 0.757314  
2001-10-30 07:39:19 51°13.638 2°56.008 21.350835 0.134278 0.757314  
2001-10-30 07:39:24 51°13.638 2°56.008 21.259708 0.134278 0.757314  
2001-10-30 07:39:29 51°13.638 2°56.007 20.790184 0.134278 0.757326  
2001-10-30 07:39:34 51°13.638 2°56.007 21.608172 0.134278 0.757339  
2001-10-30 07:39:39 51°13.638 2°56.007 21.444304 0.134278 0.757351  
2001-10-30 07:39:45 51°13.638 2°56.007 21.060521 0.134278 0.757339  
2001-10-30 07:39:50 51°13.638 2°56.007 21.060521 0.134278 0.757339  
2001-10-30 07:39:55 51°13.637 2°56.007 21.189913 0.134278 0.757339  
2001-10-30 07:40:00 51°13.637 2°56.008 21.16301 0.134179 0.756744  
2001-10-30 07:40:05 51°13.637 2°56.008 21.061238 0.134278 0.757339  
2001-10-30 07:40:10 51°13.636 2°56.009 21.480769 0.134278 0.757351  
2001-10-30 07:40:15 51°13.635 2°56.011 20.692643 0.134179 0.756756  
2001-10-30 07:40:20 51°13.633 2°56.013 20.692643 0.134179 0.756756  
2001-10-30 07:40:25 51°13.63 2°56.017 20.68551 0.134278 0.757364  
2001-10-30 07:40:29 51°13.628 2°56.02 20.918831 0.134179 0.756781  
2001-10-30 07:40:34 51°13.625 2°56.025 21.122319 0.134278 0.757376  
2001-10-30 07:40:38 51°13.623 2°56.028 20.929575 0.134179 0.756794  
2001-10-30 07:40:44 51°13.619 2°56.034 20.735584 0.134179 0.756806  
2001-10-30 07:40:49 51°13.616 2°56.04 20.735584 0.134179 0.756806  
2001-10-30 07:40:54 51°13.612 2°56.045 21.128731 0.134179 0.756819  
2001-10-30 07:40:59 51°13.608 2°56.051 21.235218 0.134179 0.756831  
2001-10-30 07:41:04 51°13.605 2°56.057 21.006927 0.134179 0.756831  
2001-10-30 07:41:09 51°13.601 2°56.064 21.102522 0.134179 0.756831  
2001-10-30 07:41:14 51°13.597 2°56.07 21.230167 0.134179 0.756819  
2001-10-30 07:41:19 51°13.593 2°56.077 21.230167 0.134179 0.756819  
2001-10-30 07:41:24 51°13.589 2°56.084 21.229014 0.134179 0.756831  
2001-10-30 07:41:29 51°13.585 2°56.091 21.823424 0.134179 0.756831  
2001-10-30 07:41:34 51°13.581 2°56.099 20.710311 0.134179 0.756844  
2001-10-30 07:41:39 51°13.577 2°56.107 20.710231 0.134179 0.756844  
2001-10-30 07:41:44 51°13.574 2°56.114 20.952614 0.134179 0.756856  
2001-10-30 07:41:49 51°13.572 2°56.122 20.952614 0.134179 0.756856  
2001-10-30 07:41:54 51°13.569 2°56.131 21.000664 0.134179 0.756869  
2001-10-30 07:41:59 51°13.567 2°56.139 21.134306 0.134179 0.756881  
2001-10-30 07:42:04 51°13.565 2°56.148 21.006528 0.134179 0.756881  
2001-10-30 07:42:09 51°13.563 2°56.157 21.367229 0.134179 0.756881  
2001-10-30 07:42:14 51°13.562 2°56.166 20.78002 0.134179 0.756881  
2001-10-30 07:42:19 51°13.56 2°56.176 20.78002 0.134179 0.756881  
2001-10-30 07:42:24 51°13.559 2°56.186 21.370364 0.134179 0.756894  
2001-10-30 07:42:29 51°13.558 2°56.195 20.8489 0.134179 0.756906  
2001-10-30 07:42:34 51°13.557 2°56.205 20.852218 0.134179 0.756906  
2001-10-30 07:42:39 51°13.556 2°56.214 21.111605 0.134179 0.756919  
2001-10-30 07:42:44 51°13.555 2°56.223 21.07196 0.134179 0.756944  
2001-10-30 07:42:49 51°13.554 2°56.234 21.07196 0.134179 0.756944  
2001-10-30 07:42:54 51°13.551 2°56.244 20.726573 0.134179 0.756956  
2001-10-30 07:42:59 51°13.55 2°56.253 20.728456 0.134179 0.756981  
2001-10-30 07:43:04 51°13.547 2°56.261 20.365847 0.134179 0.757006  
2001-10-30 07:43:09 51°13.544 2°56.27 20.527566 0.134179 0.757019  
2001-10-30 07:43:14 51°13.54 2°56.276 20.873723 0.134179 0.757044  
2001-10-30 07:43:19 51°13.536 2°56.282 20.873723 0.134179 0.757044  
2001-10-30 07:43:24 51°13.533 2°56.287 20.686993 0.134179 0.757081  
2001-10-30 07:43:29 51°13.53 2°56.29 21.303776 0.134179 0.757081  
2001-10-30 07:43:34 51°13.527 2°56.293 21.328878 0.134179 0.757106  
2001-10-30 07:43:39 51°13.525 2°56.295 20.60247 0.134179 0.757119  
2001-10-30 07:43:44 51°13.523 2°56.297 21.692533 0.134179 0.757131  
2001-10-30 07:43:49 51°13.521 2°56.298 21.692533 0.134179 0.757131  
2001-10-30 07:43:54 51°13.521 2°56.298 21.026989 0.134179 0.757131  
2001-10-30 07:43:59 51°13.521 2°56.299 21.554673 0.134179 0.757131  
2001-10-30 07:44:04 51°13.521 2°56.298 21.597215 0.134179 0.757144  
2001-10-30 07:44:09 51°13.523 2°56.298 22.042037 0.134179 0.757144  
2001-10-30 07:44:14 51°13.524 2°56.298 21.839906 0.134179 0.757144  
2001-10-30 07:44:19 51°13.525 2°56.298 21.839906 0.134179 0.757144  
2001-10-30 07:44:25 51°13.526 2°56.298 22.199283 0.134179 0.757131  
2001-10-30 07:44:30 51°13.525 2°56.298 21.347778 0.134179 0.757131  
2001-10-30 07:44:35 51°13.524 2°56.298 21.224202 0.134179 0.757131  
2001-10-30 07:44:40 51°13.522 2°56.296 21.990988 0.134179 0.757119  
2001-10-30 07:44:45 51°13.52 2°56.295 21.423922 0.134179 0.757106  
2001-10-30 07:44:49 51°13.519 2°56.292 21.423922 0.134179 0.757106  
2001-10-30 07:44:54 51°13.517 2°56.291 21.452669 0.134179 0.757131  
2001-10-30 07:44:59 51°13.514 2°56.288 21.134465 0.134179 0.757144  
2001-10-30 07:45:04 51°13.512 2°56.286 21.527236 0.134179 0.757156  
2001-10-30 07:45:09 51°13.511 2°56.283 21.235218 0.134179 0.757169  
2001-10-30 07:45:14 51°13.51 2°56.281 21.719315 0.134179 0.757169  
2001-10-30 07:45:19 51°13.509 2°56.279 21.719315 0.134179 0.757169  
2001-10-30 07:45:24 51°13.508 2°56.278 21.374174 0.134179 0.757169  
2001-10-30 07:45:29 51°13.508 2°56.277 21.242772 0.134179 0.757169  
2001-10-30 07:45:34 51°13.509 2°56.276 21.445612 0.134179 0.757169  
2001-10-30 07:45:39 51°13.509 2°56.276 21.498599 0.134179 0.757156  
2001-10-30 07:45:44 51°13.509 2°56.277 21.335787 0.134179 0.757169  
2001-10-30 07:45:49 51°13.509 2°56.277 21.335787 0.134179 0.757169  
2001-10-30 07:45:54 51°13.51 2°56.277 21.47106 0.134179 0.757156  
2001-10-30 07:45:59 51°13.51 2°56.276 21.39691 0.134179 0.757169  
2001-10-30 07:46:04 51°13.51 2°56.273 22.033938 0.134179 0.757181  
2001-10-30 07:46:09 51°13.51 2°56.269 21.137452 0.134179 0.757181  
2001-10-30 07:46:14 51°13.51 2°56.264 21.336026 0.13408 0.756623  
2001-10-30 07:46:19 51°13.511 2°56.257 21.336026 0.13408 0.756623  
2001-10-30 07:46:24 51°13.512 2°56.249 21.329633 0.13408 0.756636  
2001-10-30 07:46:29 51°13.514 2°56.241 21.078815 0.13408 0.756636  
2001-10-30 07:46:34 51°13.516 2°56.232 21.139283 0.13408 0.756661  
2001-10-30 07:46:39 51°13.519 2°56.222 21.309496 0.13408 0.756661  
2001-10-30 07:46:44 51°13.522 2°56.213 21.151745 0.134179 0.757256  
2001-10-30 07:46:49 51°13.526 2°56.203 21.151745 0.134179 0.757256  
2001-10-30 07:46:54 51°13.529 2°56.194 21.541767 0.13408 0.756686  
2001-10-30 07:46:59 51°13.533 2°56.185 21.057372 0.13408 0.756686  
2001-10-30 07:47:04 51°13.536 2°56.176 21.217401 0.134179 0.757269  
2001-10-30 07:47:09 51°13.539 2°56.167 21.028704 0.13408 0.756686  
2001-10-30 07:47:14 51°13.543 2°56.159 20.924743 0.13408 0.756698  
2001-10-30 07:47:19 51°13.546 2°56.151 20.924743 0.13408 0.756698  
2001-10-30 07:47:24 51°13.549 2°56.143 20.927977 0.13408 0.756698  
2001-10-30 07:47:29 51°13.552 2°56.135 20.697371 0.13408 0.756698  
2001-10-30 07:47:34 51°13.555 2°56.127 21.188719 0.13408 0.756711  
2001-10-30 07:47:39 51°13.558 2°56.119 21.614778 0.13408 0.756723  
2001-10-30 07:47:44 51°13.561 2°56.111 20.832986 0.13408 0.756748  
2001-10-30 07:47:49 51°13.563 2°56.103 20.832986 0.13408 0.756748  
2001-10-30 07:47:54 51°13.566 2°56.096 20.737146 0.13408 0.756773  
2001-10-30 07:47:59 51°13.569 2°56.088 20.801667 0.13408 0.756786  
2001-10-30 07:48:04 51°13.572 2°56.08 21.230406 0.13408 0.756798  
2001-10-30 07:48:09 51°13.575 2°56.073 21.29591 0.13408 0.756811  
2001-10-30 07:48:14 51°13.578 2°56.065 21.134226 0.13408 0.756798  
2001-10-30 07:48:19 51°13.581 2°56.058 21.134226 0.13408 0.756798  
2001-10-30 07:48:24 51°13.583 2°56.051 21.425707 0.13408 0.756823  
2001-10-30 07:48:29 51°13.586 2°56.043 21.166592 0.13408 0.756811  
2001-10-30 07:48:34 51°13.589 2°56.036 20.873883 0.13408 0.756823  
2001-10-30 07:48:39 51°13.592 2°56.029 21.692138 0.13408 0.756848  
2001-10-30 07:48:44 51°13.595 2°56.022 21.268174 0.13408 0.756861  
2001-10-30 07:48:49 51°13.598 2°56.015 21.268174 0.13408 0.756861  
2001-10-30 07:48:54 51°13.601 2°56.007 21.751416 0.13408 0.756873  
2001-10-30 07:48:59 51°13.604 2°56 21.141274 0.13408 0.756898  
2001-10-30 07:49:04 51°13.606 2°55.992 21.756074 0.13408 0.756911  
2001-10-30 07:49:09 51°13.609 2°55.985 21.306517 0.13408 0.756923  
2001-10-30 07:49:14 51°13.612 2°55.978 21.8874 0.13408 0.756936  
2001-10-30 07:49:19 51°13.614 2°55.971 21.8874 0.13408 0.756936  
2001-10-30 07:49:24 51°13.617 2°55.963 21.826894 0.13408 0.756923  
2001-10-30 07:49:29 51°13.619 2°55.956 21.538244 0.13408 0.756923  
2001-10-30 07:49:34 51°13.622 2°55.949 21.896225 0.13408 0.756936  
2001-10-30 07:49:39 51°13.625 2°55.941 21.573078 0.13408 0.756948  
2001-10-30 07:49:44 51°13.628 2°55.934 21.337137 0.13408 0.756948  
2001-10-30 07:49:49 51°13.632 2°55.925 21.337137 0.13408 0.756948  
2001-10-30 07:49:54 51°13.635 2°55.916 21.182034 0.13408 0.756961  
2001-10-30 07:49:59 51°13.639 2°55.907 22.058587 0.13408 0.756973  
2001-10-30 07:50:04 51°13.644 2°55.896 22.155687 0.13408 0.756986  
2001-10-30 07:50:09 51°13.648 2°55.885 21.451083 0.13408 0.756998  
2001-10-30 07:50:14 51°13.653 2°55.874 21.619721 0.13408 0.756998  
2001-10-30 07:50:19 51°13.658 2°55.862 21.619721 0.13408 0.756998  
2001-10-30 07:50:24 51°13.664 2°55.85 21.909461 0.13408 0.757011  
2001-10-30 07:50:32 51°13.673 2°55.83 20.936284 0.13408 0.757011  
2001-10-30 07:50:37 51°13.68 2°55.817 20.936284 0.13408 0.757011  
2001-10-30 07:50:42 51°13.686 2°55.804 21.268571 0.13408 0.757023  
2001-10-30 07:50:47 51°13.693 2°55.792 21.53076 0.13408 0.757023  
2001-10-30 07:50:52 51°13.7 2°55.779 21.840773 0.13408 0.757048  
2001-10-30 07:50:57 51°13.707 2°55.766 21.263205 0.13408 0.757061  
2001-10-30 07:51:02 51°13.715 2°55.753 21.330427 0.13408 0.757061  
2001-10-30 07:51:07 51°13.723 2°55.74 21.330427 0.13408 0.757061  
2001-10-30 07:51:12 51°13.731 2°55.728 21.308384 0.13408 0.757048  
2001-10-30 07:51:17 51°13.74 2°55.716 21.435303 0.13408 0.757073  
2001-10-30 07:51:22 51°13.749 2°55.705 21.247066 0.13408 0.757086  
2001-10-30 07:51:27 51°13.758 2°55.695 20.9594 0.13408 0.757086  
2001-10-30 07:51:32 51°13.768 2°55.685 20.605479 0.13408 0.757086  
2001-10-30 07:51:37 51°13.778 2°55.675 20.605479 0.13408 0.757086  
2001-10-30 07:51:42 51°13.788 2°55.667 21.45136 0.13408 0.757098  
2001-10-30 07:51:47 51°13.798 2°55.658 21.39937 0.13408 0.757111  
2001-10-30 07:51:52 51°13.809 2°55.65 21.345952 0.13408 0.757123  
2001-10-30 07:51:57 51°13.82 2°55.642 21.490041 0.133981 0.75654  
2001-10-30 07:52:02 51°13.83 2°55.634 21.557128 0.13408 0.757136  
2001-10-30 07:52:07 51°13.841 2°55.625 21.557128 0.13408 0.757136  
2001-10-30 07:52:12 51°13.852 2°55.617 21.367824 0.13408 0.757123  
2001-10-30 07:52:17 51°13.863 2°55.609 21.050834 0.13408 0.757136  
2001-10-30 07:52:22 51°13.873 2°55.601 21.300479 0.13408 0.757136  
2001-10-30 07:52:27 51°13.884 2°55.592 21.149953 0.13408 0.757148  
2001-10-30 07:52:32 51°13.895 2°55.584 21.025315 0.133981 0.756565  
2001-10-30 07:52:37 51°13.906 2°55.577 21.025315 0.133981 0.756565  
2001-10-30 07:52:42 51°13.918 2°55.569 21.729938 0.133981 0.756578  
2001-10-30 07:52:47 51°13.929 2°55.562 21.236132 0.133981 0.756578  
2001-10-30 07:52:52 51°13.94 2°55.554 21.213185 0.133981 0.75659  
2001-10-30 07:52:57 51°13.952 2°55.547 21.077301 0.133981 0.75659  
2001-10-30 07:53:02 51°13.963 2°55.54 21.301472 0.133981 0.75659  
2001-10-30 07:53:07 51°13.974 2°55.532 21.301472 0.133981 0.75659  
2001-10-30 07:53:12 51°13.986 2°55.525 21.080489 0.133981 0.756603  
2001-10-30 07:53:17 51°13.998 2°55.516 21.402543 0.133981 0.756603  
2001-10-30 07:53:22 51°14.01 2°55.507 20.860573 0.133981 0.756603  
2001-10-30 07:53:27 51°14.023 2°55.498 21.215492 0.133981 0.756603  
2001-10-30 07:53:32 51°14.035 2°55.489 20.930094 0.133981 0.756615  
2001-10-30 07:53:37 51°14.048 2°55.48 20.930094 0.133981 0.756615  
2001-10-30 07:53:42 51°14.061 2°55.471 20.4404 0.133981 0.756628  
2001-10-30 07:53:47 51°14.074 2°55.462 20.922626 0.133981 0.756615  
2001-10-30 07:53:52 51°14.087 2°55.452 21.277712 0.133981 0.756628  
2001-10-30 07:53:57 51°14.099 2°55.441 22.261552 0.133981 0.75664  
2001-10-30 07:54:02 51°14.112 2°55.43 21.164563 0.133981 0.756653  
2001-10-30 07:54:07 51°14.125 2°55.42 21.164563 0.133981 0.756653  
2001-10-30 07:54:12 51°14.138 2°55.409 20.620201 0.133981 0.756653  
2001-10-30 07:54:17 51°14.15 2°55.398 21.118018 0.133981 0.756665  
2001-10-30 07:54:22 51°14.162 2°55.387 22.069199 0.133981 0.756653  
2001-10-30 07:54:27 51°14.175 2°55.375 21.78082 0.133981 0.756665  
2001-10-30 07:54:32 51°14.186 2°55.362 21.672658 0.133981 0.756678  
2001-10-30 07:54:37 51°14.198 2°55.35 21.672658 0.133981 0.756678  
2001-10-30 07:54:42 51°14.21 2°55.336 21.709086 0.133981 0.756678  
2001-10-30 07:54:47 51°14.221 2°55.322 21.77419 0.133981 0.756678  
2001-10-30 07:54:52 51°14.232 2°55.308 21.712009 0.133981 0.756678  
2001-10-30 07:54:57 51°14.243 2°55.293 21.648863 0.133981 0.756678  
2001-10-30 07:55:02 51°14.253 2°55.277 21.579133 0.133981 0.756703  
2001-10-30 07:55:07 51°14.263 2°55.262 21.579133 0.133981 0.756703  
2001-10-30 07:55:12 51°14.273 2°55.245 22.256966 0.133981 0.75669  
2001-10-30 07:55:17 51°14.283 2°55.229 21.363537 0.133981 0.75669  
2001-10-30 07:55:22 51°14.293 2°55.212 22.319145 0.133981 0.756703  
2001-10-30 07:55:27 51°14.302 2°55.195 21.930648 0.133981 0.756715  
2001-10-30 07:55:32 51°14.312 2°55.177 21.629094 0.133981 0.756703  
2001-10-30 07:55:37 51°14.321 2°55.159 21.629094 0.133981 0.756703  
2001-10-30 07:55:42 51°14.33 2°55.141 21.489566 0.133981 0.756715  
2001-10-30 07:55:47 51°14.339 2°55.123 21.612444 0.133981 0.756728  
2001-10-30 07:55:52 51°14.347 2°55.104 21.373658 0.133981 0.756728  
2001-10-30 07:55:57 51°14.356 2°55.085 21.47106 0.133981 0.75674  
2001-10-30 07:56:02 51°14.364 2°55.065 21.619642 0.133981 0.75674  
2001-10-30 07:56:07 51°14.373 2°55.046 21.619642 0.133981 0.75674  
2001-10-30 07:56:12 51°14.381 2°55.026 21.412064 0.133981 0.75674  
2001-10-30 07:56:17 51°14.39 2°55.007 21.389332 0.133981 0.756766  
2001-10-30 07:56:22 51°14.399 2°54.988 21.468365 0.133981 0.756778  
2001-10-30 07:56:27 51°14.408 2°54.969 21.735782 0.133981 0.756778  
2001-10-30 07:56:32 51°14.418 2°54.951 21.20869 0.133981 0.756791  
2001-10-30 07:56:37 51°14.429 2°54.934 21.20869 0.133981 0.756791  
2001-10-30 07:56:42 51°14.441 2°54.918 21.61106 0.133981 0.756791  
2001-10-30 07:56:47 51°14.454 2°54.903 21.168503 0.133981 0.756816  
2001-10-30 07:56:52 51°14.466 2°54.888 22.009319 0.133981 0.756816  
2001-10-30 07:56:57 51°14.479 2°54.873 22.011522 0.133981 0.756841  
2001-10-30 07:57:02 51°14.492 2°54.857 20.93828 0.133981 0.756841  
2001-10-30 07:57:07 51°14.505 2°54.841 20.93828 0.133981 0.756841  
2001-10-30 07:57:12 51°14.518 2°54.825 21.399727 0.133981 0.756841  
2001-10-30 07:57:17 51°14.532 2°54.809 21.535868 0.133981 0.756841  
2001-10-30 07:57:22 51°14.546 2°54.792 21.82228 0.133981 0.756841  
2001-10-30 07:57:27 51°14.56 2°54.776 21.697353 0.133981 0.756828  
2001-10-30 07:57:32 51°14.574 2°54.76 21.552971 0.133981 0.756853  
2001-10-30 07:57:37 51°14.588 2°54.744 21.552971 0.133981 0.756853  
2001-10-30 07:57:42 51°14.602 2°54.727 21.856345 0.133981 0.756853  
2001-10-30 07:57:47 51°14.617 2°54.711 21.799324 0.133981 0.756853  
2001-10-30 07:57:52 51°14.631 2°54.695 21.322365 0.133981 0.756853  
2001-10-30 07:57:57 51°14.646 2°54.68 21.832375 0.133883 0.756282  
2001-10-30 07:58:02 51°14.66 2°54.664 21.173717 0.133981 0.756866  
2001-10-30 07:58:07 51°14.675 2°54.649 21.173717 0.133981 0.756866  
2001-10-30 07:58:12 51°14.69 2°54.634 21.791473 0.133981 0.756878  
2001-10-30 07:58:17 51°14.704 2°54.619 21.497331 0.133981 0.756878  
2001-10-30 07:58:22 51°14.72 2°54.604 21.290547 0.133981 0.756903  
2001-10-30 07:58:27 51°14.734 2°54.59 21.521731 0.133981 0.756878  
2001-10-30 07:58:32 51°14.749 2°54.575 21.516859 0.133981 0.756891  
2001-10-30 07:58:37 51°14.764 2°54.56 21.516859 0.133981 0.756891  
2001-10-30 07:58:42 51°14.778 2°54.544 21.247821 0.133981 0.756891  
2001-10-30 07:58:47 51°14.793 2°54.529 21.276361 0.133883 0.756295  
2001-10-30 07:58:52 51°14.807 2°54.513 21.464243 0.133981 0.756891  
2001-10-30 07:58:57 51°14.822 2°54.498 21.527909 0.133883 0.756295  
2001-10-30 07:59:02 51°14.836 2°54.482 21.514998 0.133883 0.756295  
2001-10-30 07:59:07 51°14.85 2°54.466 21.514998 0.133883 0.756295  
2001-10-30 07:59:12 51°14.864 2°54.45 21.722119 0.133883 0.756307  
2001-10-30 07:59:17 51°14.878 2°54.434 21.400798 0.133981 0.756891  
2001-10-30 07:59:22 51°14.892 2°54.417 21.073634 0.133883 0.75632  
2001-10-30 07:59:27 51°14.906 2°54.401 21.255335 0.133883 0.756307  
2001-10-30 07:59:32 51°14.92 2°54.384 21.312436 0.133883 0.756307  
2001-10-30 07:59:37 51°14.934 2°54.369 21.312436 0.133883 0.756307  
2001-10-30 07:59:42 51°14.948 2°54.353 21.034845 0.133883 0.75632  
2001-10-30 07:59:47 51°14.962 2°54.337 20.84762 0.133883 0.756332  
2001-10-30 07:59:52 51°14.976 2°54.321 21.095272 0.133883 0.756332  
2001-10-30 07:59:57 51°14.99 2°54.306 20.787183 0.133883 0.756332  
2001-10-30 08:00:02 51°15.004 2°54.291 21.238518 0.133883 0.756332  
2001-10-30 08:00:07 51°15.018 2°54.276 21.238518 0.133883 0.756332  
2001-10-30 08:00:12 51°15.032 2°54.26 20.567678 0.133883 0.756332  
2001-10-30 08:00:17 51°15.046 2°54.245 20.437142 0.133883 0.756345  
2001-10-30 08:00:22 51°15.06 2°54.229 20.867568 0.133883 0.756357  
2001-10-30 08:00:27 51°15.074 2°54.214 20.923265 0.133883 0.756357  
2001-10-30 08:00:32 51°15.089 2°54.199 20.966465 0.133883 0.756357  
2001-10-30 08:00:37 51°15.103 2°54.184 20.966465 0.133883 0.756357  
2001-10-30 08:00:42 51°15.117 2°54.169 21.159826 0.133883 0.756357  
2001-10-30 08:00:47 51°15.132 2°54.153 21.561125 0.133883 0.75637  
2001-10-30 08:00:52 51°15.147 2°54.14 21.182432 0.133883 0.756357  
2001-10-30 08:00:57 51°15.163 2°54.126 21.268571 0.133883 0.756357  
2001-10-30 08:01:02 51°15.179 2°54.112 21.492101 0.133883 0.75637  
2001-10-30 08:01:06 51°15.191 2°54.101 21.492101 0.133883 0.75637  
2001-10-30 08:01:12 51°15.209 2°54.083 21.652895 0.133883 0.756395  
2001-10-30 08:01:17 51°15.225 2°54.069 21.129886 0.133883 0.756382  
2001-10-30 08:01:22 51°15.24 2°54.053 21.807884 0.133883 0.756382  
2001-10-30 08:01:27 51°15.255 2°54.038 21.415554 0.133883 0.756407  
2001-10-30 08:01:32 51°15.27 2°54.021 21.455721 0.133883 0.756395  
2001-10-30 08:01:37 51°15.286 2°54.006 21.455721 0.133883 0.756395  
2001-10-30 08:01:42 51°15.302 2°53.992 21.430704 0.133883 0.756395  
2001-10-30 08:01:47 51°15.318 2°53.978 21.708414 0.133883 0.756407  
2001-10-30 08:01:52 51°15.334 2°53.964 20.921188 0.133883 0.756407  
2001-10-30 08:01:57 51°15.349 2°53.949 21.44585 0.133883 0.756407  
2001-10-30 08:02:02 51°15.365 2°53.934 21.44922 0.133883 0.75642  
2001-10-30 08:02:07 51°15.381 2°53.919 21.44922 0.133883 0.75642  
2001-10-30 08:02:12 51°15.397 2°53.904 21.580913 0.133883 0.756407  
2001-10-30 08:02:17 51°15.413 2°53.889 20.894423 0.133883 0.756407  
2001-10-30 08:02:22 51°15.428 2°53.874 21.74206 0.133883 0.756432  
2001-10-30 08:02:27 51°15.444 2°53.859 21.836909 0.133883 0.756432  
2001-10-30 08:02:32 51°15.461 2°53.846 21.229332 0.133883 0.756432  
2001-10-30 08:02:37 51°15.477 2°53.834 21.229332 0.133883 0.756432  
2001-10-30 08:02:42 51°15.494 2°53.82 21.647993 0.133883 0.756445  
2001-10-30 08:02:47 51°15.51 2°53.806 21.646293 0.133883 0.756457  
2001-10-30 08:02:52 51°15.526 2°53.792 21.539907 0.133883 0.756457  
2001-10-30 08:02:57 51°15.542 2°53.778 21.344721 0.133883 0.75647  
2001-10-30 08:03:02 51°15.558 2°53.764 21.227344 0.133883 0.756457  
2001-10-30 08:03:07 51°15.574 2°53.749 21.227344 0.133883 0.756457  
2001-10-30 08:03:12 51°15.59 2°53.735 21.314978 0.133883 0.75647  
2001-10-30 08:03:17 51°15.606 2°53.72 21.705254 0.133883 0.75647  
2001-10-30 08:03:22 51°15.622 2°53.706 21.193653 0.133883 0.756482  
2001-10-30 08:03:27 51°15.638 2°53.69 21.493963 0.133883 0.756482  
2001-10-30 08:03:32 51°15.654 2°53.676 21.264795 0.133883 0.756482  
2001-10-30 08:03:37 51°15.671 2°53.662 21.264795 0.133883 0.756482  
2001-10-30 08:03:42 51°15.687 2°53.648 21.626326 0.133883 0.756507  
2001-10-30 08:03:47 51°15.703 2°53.635 21.464243 0.133883 0.756482  
2001-10-30 08:03:52 51°15.72 2°53.622 21.648547 0.133883 0.75652  
2001-10-30 08:03:57 51°15.736 2°53.609 21.68554 0.133883 0.75652  
2001-10-30 08:04:02 51°15.753 2°53.596 21.324152 0.133883 0.756545  
2001-10-30 08:04:07 51°15.769 2°53.583 21.324152 0.133883 0.756545  
2001-10-30 08:04:12 51°15.785 2°53.57 21.622015 0.133883 0.756545  
2001-10-30 08:04:17 51°15.801 2°53.557 21.323199 0.133883 0.756557  
2001-10-30 08:04:22 51°15.817 2°53.544 21.676491 0.133883 0.756557  
2001-10-30 08:04:27 51°15.832 2°53.53 20.904611 0.133883 0.75657  
2001-10-30 08:04:32 51°15.848 2°53.519 21.369451 0.133883 0.75657  
2001-10-30 08:04:37 51°15.862 2°53.506 21.369451 0.133883 0.75657  
2001-10-30 08:04:42 51°15.877 2°53.495 20.970576 0.133883 0.756583  
2001-10-30 08:04:47 51°15.891 2°53.483 21.692533 0.133883 0.756583  
2001-10-30 08:04:52 51°15.906 2°53.471 21.23307 0.133883 0.756595  
2001-10-30 08:04:57 51°15.921 2°53.458 21.069489 0.133883 0.756595  
2001-10-30 08:05:02 51°15.936 2°53.446 21.149038 0.133883 0.756608  
2001-10-30 08:05:07 51°15.952 2°53.433 21.149038 0.133883 0.756608  
2001-10-30 08:05:12 51°15.968 2°53.42 21.337018 0.133883 0.756608  
2001-10-30 08:05:17 51°15.984 2°53.407 21.165398 0.133883 0.756633  
2001-10-30 08:05:22 51°15.999 2°53.394 20.914638 0.133883 0.75662  
2001-10-30 08:05:27 51°16.016 2°53.382 21.333087 0.133883 0.756633  
2001-10-30 08:05:32 51°16.032 2°53.37 21.273301 0.133883 0.756633  
2001-10-30 08:05:37 51°16.048 2°53.357 21.273301 0.133883 0.756633  
2001-10-30 08:05:42 51°16.064 2°53.344 21.116185 0.133883 0.75667  
2001-10-30 08:05:46 51°16.078 2°53.335 21.702528 0.133883 0.756658  
2001-10-30 08:05:52 51°16.097 2°53.319 21.437801 0.133883 0.75667  
2001-10-30 08:05:57 51°16.114 2°53.307 21.631743 0.133784 0.756087  
2001-10-30 08:06:02 51°16.131 2°53.294 21.780978 0.133883 0.756708  
2001-10-30 08:06:07 51°16.147 2°53.281 21.780978 0.133883 0.756708  
2001-10-30 08:06:12 51°16.164 2°53.268 21.882553 0.133784 0.756087  
2001-10-30 08:06:17 51°16.18 2°53.255 21.355837 0.133883 0.75672  
2001-10-30 08:06:22 51°16.196 2°53.241 21.663212 0.133784 0.756162  
2001-10-30 08:06:27 51°16.212 2°53.228 21.406788 0.133784 0.756137  
2001-10-30 08:06:32 51°16.229 2°53.215 21.666058 0.133784 0.756149  
2001-10-30 08:06:37 51°16.245 2°53.202 21.666058 0.133784 0.756149  
2001-10-30 08:06:42 51°16.262 2°53.189 21.29452 0.133784 0.756124  
2001-10-30 08:06:47 51°16.279 2°53.176 21.531512 0.133784 0.756149  
2001-10-30 08:06:52 51°16.295 2°53.163 21.664754 0.133784 0.756187  
2001-10-30 08:06:57 51°16.312 2°53.151 21.990358 0.133784 0.756162  
2001-10-30 08:07:02 51°16.328 2°53.137 21.829694 0.133784 0.756199  
2001-10-30 08:07:07 51°16.345 2°53.125 21.829694 0.133784 0.756199  
2001-10-30 08:07:12 51°16.361 2°53.111 21.543232 0.133784 0.756199  
2001-10-30 08:07:17 51°16.378 2°53.1 21.706044 0.133784 0.756187  
2001-10-30 08:07:22 51°16.394 2°53.087 21.693363 0.133784 0.756212  
2001-10-30 08:07:27 51°16.411 2°53.075 21.609319 0.133784 0.756199  
2001-10-30 08:07:32 51°16.427 2°53.062 21.538877 0.133784 0.756249  
2001-10-30 08:07:37 51°16.444 2°53.049 21.538877 0.133784 0.756249  
2001-10-30 08:07:42 51°16.46 2°53.036 21.188281 0.133784 0.756249  
2001-10-30 08:07:47 51°16.477 2°53.024 21.320935 0.133784 0.756249  
2001-10-30 08:07:52 51°16.493 2°53.012 22.289532 0.133784 0.756274  
2001-10-30 08:07:57 51°16.51 2°52.999 21.745968 0.133784 0.756237  
2001-10-30 08:08:02 51°16.526 2°52.987 21.715405 0.133784 0.756287  
2001-10-30 08:08:07 51°16.543 2°52.974 21.715405 0.133784 0.756287  
2001-10-30 08:08:12 51°16.559 2°52.961 21.62332 0.133784 0.756262  
2001-10-30 08:08:17 51°16.575 2°52.948 21.680719 0.133784 0.756287  
2001-10-30 08:08:22 51°16.592 2°52.936 21.783266 0.133784 0.756287  
2001-10-30 08:08:27 51°16.608 2°52.923 21.26253 0.133784 0.756274  
2001-10-30 08:08:32 51°16.625 2°52.91 21.593061 0.133784 0.756299  
2001-10-30 08:08:37 51°16.642 2°52.898 21.593061 0.133784 0.756299  
2001-10-30 08:08:42 51°16.658 2°52.885 21.517652 0.133784 0.756324  
2001-10-30 08:08:46 51°16.671 2°52.875 21.102124 0.133784 0.756299  
2001-10-30 08:08:52 51°16.69 2°52.859 21.597215 0.133784 0.756349  
2001-10-30 08:08:57 51°16.707 2°52.847 21.799403 0.133784 0.756324  
2001-10-30 08:09:02 51°16.723 2°52.835 21.945689 0.133784 0.756324  
2001-10-30 08:09:07 51°16.74 2°52.823 21.945689 0.133784 0.756324  
2001-10-30 08:09:12 51°16.756 2°52.81 21.655346 0.133784 0.756362  
2001-10-30 08:09:17 51°16.772 2°52.798 21.504145 0.133784 0.756362  
2001-10-30 08:09:22 51°16.788 2°52.785 20.886232 0.133784 0.756349  
2001-10-30 08:09:27 51°16.805 2°52.773 21.016221 0.133784 0.756362  
2001-10-30 08:09:32 51°16.82 2°52.76 21.695299 0.133784 0.756349  
2001-10-30 08:09:37 51°16.837 2°52.747 21.695299 0.133784 0.756349  
2001-10-30 08:09:42 51°16.853 2°52.735 21.305524 0.133784 0.756399  
2001-10-30 08:09:47 51°16.869 2°52.722 21.631625 0.133784 0.756374  
2001-10-30 08:09:52 51°16.885 2°52.71 21.568764 0.133784 0.756362  
2001-10-30 08:09:57 51°16.901 2°52.698 21.630834 0.133784 0.756437  
2001-10-30 08:10:02 51°16.917 2°52.685 21.275804 0.133784 0.756374  
2001-10-30 08:10:07 51°16.933 2°52.673 21.275804 0.133784 0.756374  
2001-10-30 08:10:12 51°16.949 2°52.66 21.372745 0.133784 0.75645  
2001-10-30 08:10:17 51°16.965 2°52.646 21.114074 0.133784 0.75645  
2001-10-30 08:10:22 51°16.982 2°52.635 21.150272 0.133784 0.756424  
2001-10-30 08:10:27 51°16.998 2°52.62 21.636884 0.133784 0.756487  
2001-10-30 08:10:32 51°17.015 2°52.609 20.820188 0.133784 0.756424  
2001-10-30 08:10:37 51°17.031 2°52.595 20.820188 0.133784 0.756424  
2001-10-30 08:10:42 51°17.047 2°52.584 21.24969 0.133784 0.75645  
2001-10-30 08:10:47 51°17.063 2°52.57 21.083398 0.133784 0.7565  
2001-10-30 08:10:52 51°17.08 2°52.558 20.99049 0.133784 0.75645  
2001-10-30 08:10:57 51°17.096 2°52.544 21.346508 0.133784 0.756537  
2001-10-30 08:11:02 51°17.112 2°52.533 21.255573 0.133784 0.7565  
2001-10-30 08:11:07 51°17.128 2°52.519 21.255573 0.133784 0.7565  
2001-10-30 08:11:12 51°17.144 2°52.508 21.155925 0.133784 0.7565  
2001-10-30 08:11:17 51°17.16 2°52.494 21.2855 0.133784 0.75655  
2001-10-30 08:11:22 51°17.175 2°52.479 20.900296 0.133784 0.756562  
2001-10-30 08:11:27 51°17.19 2°52.463 21.453699 0.133784 0.756562  
2001-10-30 08:11:32 51°17.205 2°52.446 21.683643 0.133784 0.75655  
2001-10-30 08:11:37 51°17.22 2°52.428 21.683643 0.133784 0.75655  
2001-10-30 08:11:42 51°17.234 2°52.41 21.614461 0.133784 0.75655  
2001-10-30 08:11:47 51°17.248 2°52.391 21.329513 0.133784 0.75655  
2001-10-30 08:11:52 51°17.262 2°52.373 21.367625 0.133784 0.756525  
2001-10-30 08:11:57 51°17.276 2°52.354 21.201331 0.133784 0.756525  
2001-10-30 08:12:02 51°17.29 2°52.335 21.792696 0.133784 0.756537  
2001-10-30 08:12:07 51°17.304 2°52.317 21.792696 0.133784 0.756537  
2001-10-30 08:12:12 51°17.318 2°52.299 21.462618 0.133784 0.756562  
2001-10-30 08:12:17 51°17.333 2°52.28 21.400719 0.133784 0.75655  
2001-10-30 08:12:22 51°17.347 2°52.263 20.917913 0.133784 0.756587  
2001-10-30 08:12:27 51°17.362 2°52.245 21.175866 0.133784 0.756562  
2001-10-30 08:12:32 51°17.376 2°52.228 21.467374 0.133784 0.7566  
2001-10-30 08:12:37 51°17.391 2°52.211 21.467374 0.133784 0.7566  
2001-10-30 08:12:42 51°17.406 2°52.194 21.148679 0.133784 0.756612  
2001-10-30 08:12:47 51°17.42 2°52.178 21.372348 0.133685 0.756016  
2001-10-30 08:12:52 51°17.435 2°52.161 21.11045 0.133784 0.756625  
2001-10-30 08:12:57 51°17.449 2°52.143 21.303101 0.133784 0.756612  
2001-10-30 08:13:02 51°17.464 2°52.125 21.735387 0.133784 0.756637  
2001-10-30 08:13:07 51°17.478 2°52.106 21.735387 0.133784 0.756637  
2001-10-30 08:13:12 51°17.491 2°52.087 22.05843 0.133784 0.756637  
2001-10-30 08:13:17 51°17.504 2°52.066 20.953971 0.133784 0.75665  
2001-10-30 08:13:22 51°17.517 2°52.046 21.373975 0.133784 0.756637  
2001-10-30 08:13:27 51°17.53 2°52.025 21.446167 0.133784 0.756625  
2001-10-30 08:13:32 51°17.543 2°52.004 21.706321 0.133685 0.756041  
2001-10-30 08:13:37 51°17.555 2°51.983 21.706321 0.133685 0.756041  
2001-10-30 08:13:42 51°17.568 2°51.962 21.417854 0.133685 0.756053  
2001-10-30 08:13:47 51°17.581 2°51.941 21.616676 0.133784 0.75665  
2001-10-30 08:13:52 51°17.593 2°51.92 21.811986 0.133685 0.756066  
2001-10-30 08:13:57 51°17.606 2°51.899 21.614778 0.133784 0.756662  
2001-10-30 08:14:02 51°17.618 2°51.877 21.318711 0.133784 0.7567  
2001-10-30 08:14:07 51°17.63 2°51.856 21.318711 0.133784 0.7567  
2001-10-30 08:14:12 51°17.642 2°51.835 21.583485 0.133784 0.7567  
2001-10-30 08:14:17 51°17.655 2°51.814 21.295434 0.133685 0.756091  
2001-10-30 08:14:22 51°17.667 2°51.793 21.457901 0.133685 0.756091  
2001-10-30 08:14:27 51°17.679 2°51.772 22.035393 0.133685 0.756104  
2001-10-30 08:14:32 51°17.691 2°51.75 21.232871 0.133685 0.756116  
2001-10-30 08:14:37 51°17.704 2°51.729 21.232871 0.133685 0.756116  
2001-10-30 08:14:42 51°17.715 2°51.706 21.360044 0.133685 0.756129  
2001-10-30 08:14:47 51°17.727 2°51.684 21.140955 0.133685 0.756116  
2001-10-30 08:14:52 51°17.738 2°51.66 21.366078 0.133685 0.756141  
2001-10-30 08:14:57 51°17.749 2°51.638 21.27024 0.133685 0.756141  
2001-10-30 08:15:02 51°17.76 2°51.614 21.598599 0.133685 0.756154  
2001-10-30 08:15:07 51°17.771 2°51.591 21.598599 0.133685 0.756154  
2001-10-30 08:15:12 51°17.782 2°51.567 22.046441 0.133685 0.756179  
2001-10-30 08:15:17 51°17.793 2°51.544 21.340711 0.133685 0.756154  
2001-10-30 08:15:22 51°17.804 2°51.52 20.921108 0.133685 0.756179  
2001-10-30 08:15:27 51°17.815 2°51.497 21.315772 0.133685 0.756166  
2001-10-30 08:15:32 51°17.826 2°51.473 21.018215 0.133685 0.756166  
2001-10-30 08:15:37 51°17.838 2°51.45 21.018215 0.133685 0.756166  
2001-10-30 08:15:42 51°17.849 2°51.427 21.61015 0.133685 0.756179  
2001-10-30 08:15:47 51°17.861 2°51.404 21.219151 0.133685 0.756204  
2001-10-30 08:15:52 51°17.873 2°51.381 21.604652 0.133685 0.756216  
2001-10-30 08:15:57 51°17.884 2°51.359 21.4447 0.133685 0.756254  
2001-10-30 08:16:02 51°17.895 2°51.336 21.223367 0.133685 0.756216  
2001-10-30 08:16:07 51°17.907 2°51.312 21.223367 0.133685 0.756216  
2001-10-30 08:16:12 51°17.918 2°51.289 21.218316 0.133685 0.756229  
2001-10-30 08:16:17 51°17.93 2°51.267 21.280772 0.133685 0.756254  
2001-10-30 08:16:22 51°17.94 2°51.243 21.053943 0.133685 0.756279  
2001-10-30 08:16:26 51°17.949 2°51.224 21.223964 0.133685 0.756254  
2001-10-30 08:16:32 51°17.961 2°51.194 21.415554 0.133685 0.756279  
2001-10-30 08:16:37 51°17.972 2°51.17 21.415554 0.133685 0.756279  
2001-10-30 08:16:42 51°17.982 2°51.145 21.292493 0.133685 0.756279  
2001-10-30 08:16:47 51°17.992 2°51.12 21.520741 0.133685 0.756266  
2001-10-30 08:16:52 51°18.002 2°51.096 21.806464 0.133685 0.756291  
2001-10-30 08:16:57 51°18.012 2°51.072 21.102522 0.133685 0.756304  
2001-10-30 08:17:02 51°18.022 2°51.047 21.691862 0.133685 0.756291  
2001-10-30 08:17:07 51°18.033 2°51.022 21.691862 0.133685 0.756291  
2001-10-30 08:17:12 51°18.043 2°50.997 21.470347 0.133685 0.756291  
2001-10-30 08:17:17 51°18.054 2°50.973 21.367229 0.133685 0.756316  
2001-10-30 08:17:22 51°18.063 2°50.948 21.462103 0.133685 0.756329  
2001-10-30 08:17:27 51°18.074 2°50.924 21.39576 0.133685 0.756354  
2001-10-30 08:17:32 51°18.084 2°50.899 21.497172 0.133685 0.756341  
2001-10-30 08:17:37 51°18.094 2°50.875 21.497172 0.133685 0.756341  
2001-10-30 08:17:42 51°18.105 2°50.85 21.726029 0.133685 0.756367  
2001-10-30 08:17:47 51°18.115 2°50.826 21.595236 0.133685 0.756367  
2001-10-30 08:17:52 51°18.126 2°50.801 21.007924 0.133685 0.756354  
2001-10-30 08:17:57 51°18.136 2°50.776 21.586493 0.133685 0.756367  
2001-10-30 08:18:02 51°18.146 2°50.752 21.700909 0.133685 0.756354  
2001-10-30 08:18:07 51°18.157 2°50.727 21.700909 0.133685 0.756354  
2001-10-30 08:18:12 51°18.167 2°50.703 21.248537 0.133685 0.756379  
2001-10-30 08:18:17 51°18.178 2°50.678 21.474112 0.133685 0.756404  
2001-10-30 08:18:22 51°18.189 2°50.653 20.793665 0.133685 0.756392  
2001-10-30 08:18:27 51°18.198 2°50.629 21.571376 0.133685 0.756429  
2001-10-30 08:18:32 51°18.209 2°50.604 21.606867 0.133685 0.756404  
2001-10-30 08:18:37 51°18.219 2°50.58 21.606867 0.133685 0.756404  
2001-10-30 08:18:42 51°18.23 2°50.555 21.740836 0.133685 0.756429  
2001-10-30 08:18:47 51°18.24 2°50.531 21.382626 0.133685 0.756429  
2001-10-30 08:18:52 51°18.25 2°50.506 21.420234 0.133685 0.756417  
2001-10-30 08:18:57 51°18.261 2°50.482 22.065112 0.133685 0.756454  
2001-10-30 08:19:02 51°18.271 2°50.458 21.356432 0.133685 0.756442  
2001-10-30 08:19:07 51°18.281 2°50.433 21.356432 0.133685 0.756442  
2001-10-30 08:19:12 51°18.291 2°50.409 21.131996 0.133685 0.756467  
2001-10-30 08:19:17 51°18.302 2°50.384 21.329275 0.133685 0.756442  
2001-10-30 08:19:22 51°18.312 2°50.36 21.915408 0.133685 0.756442  
2001-10-30 08:19:27 51°18.322 2°50.335 21.651828 0.133685 0.756479  
2001-10-30 08:19:32 51°18.332 2°50.31 21.298135 0.133685 0.756467  
2001-10-30 08:19:37 51°18.343 2°50.285 21.298135 0.133685 0.756467  
2001-10-30 08:19:42 51°18.353 2°50.26 21.591161 0.133685 0.756492  
2001-10-30 08:19:47 51°18.363 2°50.235 21.306239 0.133685 0.756504  
2001-10-30 08:19:52 51°18.373 2°50.211 21.177856 0.133685 0.756504  
2001-10-30 08:19:57 51°18.384 2°50.185 21.661789 0.133685 0.756492  
2001-10-30 08:20:02 51°18.394 2°50.161 21.822635 0.133685 0.756555  
2001-10-30 08:20:06 51°18.402 2°50.141 21.822635 0.133685 0.756555  
2001-10-30 08:20:12 51°18.414 2°50.111 21.571693 0.133685 0.756529  
2001-10-30 08:20:17 51°18.424 2°50.086 21.601645 0.133685 0.756542  
2001-10-30 08:20:22 51°18.435 2°50.061 21.34488 0.133685 0.756529  
2001-10-30 08:20:27 51°18.445 2°50.036 21.055618 0.133685 0.756529  
2001-10-30 08:20:32 51°18.455 2°50.011 21.704662 0.133685 0.756529  
2001-10-30 08:20:37 51°18.466 2°49.986 21.704662 0.133685 0.756529  
2001-10-30 08:20:42 51°18.476 2°49.961 21.024876 0.133685 0.756555  
2001-10-30 08:20:47 51°18.486 2°49.936 21.702884 0.133586 0.755983  
2001-10-30 08:20:52 51°18.496 2°49.911 20.834265 0.133685 0.756567  
2001-10-30 08:20:57 51°18.507 2°49.886 21.543113 0.133685 0.75658  
2001-10-30 08:21:02 51°18.517 2°49.861 20.900656 0.133586 0.755995  
2001-10-30 08:21:07 51°18.527 2°49.836 20.900656 0.133586 0.755995  
2001-10-30 08:21:12 51°18.538 2°49.811 21.036839 0.133685 0.756592  
2001-10-30 08:21:17 51°18.548 2°49.786 21.387586 0.133685 0.756592  
2001-10-30 08:21:22 51°18.559 2°49.761 21.393617 0.133586 0.75602  
2001-10-30 08:21:27 51°18.569 2°49.736 21.134823 0.133586 0.75602  
2001-10-30 08:21:32 51°18.579 2°49.711 20.610173 0.133586 0.756033  
2001-10-30 08:21:37 51°18.59 2°49.687 20.610173 0.133586 0.756033  
2001-10-30 08:21:42 51°18.6 2°49.661 21.530681 0.133586 0.756045  
2001-10-30 08:21:46 51°18.609 2°49.642 21.563342 0.133586 0.756033  
2001-10-30 08:21:52 51°18.621 2°49.612 21.366395 0.133586 0.75607  
2001-10-30 08:21:57 51°18.632 2°49.588 21.304769 0.133586 0.756083  
2001-10-30 08:22:02 51°18.642 2°49.562 21.595988 0.133586 0.75607  
2001-10-30 08:22:07 51°18.653 2°49.538 21.595988 0.133586 0.75607  
2001-10-30 08:22:12 51°18.663 2°49.513 21.215969 0.133586 0.756096  
2001-10-30 08:22:17 51°18.673 2°49.488 21.502283 0.133586 0.756096  
2001-10-30 08:22:22 51°18.683 2°49.464 21.440735 0.133586 0.756096  
2001-10-30 08:22:27 51°18.694 2°49.439 21.278944 0.133586 0.756121  
2001-10-30 08:22:32 51°18.705 2°49.415 21.377468 0.133586 0.756083  
2001-10-30 08:22:37 51°18.715 2°49.39 21.377468 0.133586 0.756083  
2001-10-30 08:22:42 51°18.726 2°49.365 21.053345 0.133586 0.756121  
2001-10-30 08:22:47 51°18.736 2°49.341 21.184223 0.133586 0.756108  
2001-10-30 08:22:52 51°18.747 2°49.317 21.251956 0.133586 0.756121  
2001-10-30 08:22:57 51°18.758 2°49.293 21.575769 0.133586 0.756133  
2001-10-30 08:23:02 51°18.769 2°49.269 21.189316 0.133586 0.756146  
2001-10-30 08:23:07 51°18.78 2°49.244 21.189316 0.133586 0.756146  
2001-10-30 08:23:12 51°18.79 2°49.219 21.809304 0.133586 0.756133  
2001-10-30 08:23:17 51°18.801 2°49.194 21.386753 0.133586 0.756158  
2001-10-30 08:23:22 51°18.812 2°49.17 21.358734 0.133586 0.756183  
2001-10-30 08:23:27 51°18.823 2°49.145 22.109235 0.133586 0.756158  
2001-10-30 08:23:32 51°18.834 2°49.121 21.39088 0.133586 0.756183  
2001-10-30 08:23:37 51°18.844 2°49.096 21.39088 0.133586 0.756183  
2001-10-30 08:23:42 51°18.855 2°49.071 21.594445 0.133586 0.756158  
2001-10-30 08:23:47 51°18.866 2°49.047 21.331737 0.133586 0.756208  
2001-10-30 08:23:52 51°18.876 2°49.022 21.598045 0.133586 0.756208  
2001-10-30 08:23:57 51°18.887 2°48.997 21.334477 0.133586 0.756183  
2001-10-30 08:24:02 51°18.898 2°48.972 21.43459 0.133586 0.756221  
2001-10-30 08:24:07 51°18.909 2°48.948 21.43459 0.133586 0.756221  
2001-10-30 08:24:12 51°18.919 2°48.924 21.531275 0.133586 0.756233  
2001-10-30 08:24:17 51°18.93 2°48.899 21.565638 0.133586 0.756233  
2001-10-30 08:24:22 51°18.941 2°48.874 21.04585 0.133586 0.756246  
2001-10-30 08:24:27 51°18.951 2°48.85 21.376198 0.133586 0.756233  
2001-10-30 08:24:32 51°18.962 2°48.825 21.341823 0.133586 0.756271  
2001-10-30 08:24:37 51°18.973 2°48.801 21.341823 0.133586 0.756271  
2001-10-30 08:24:42 51°18.984 2°48.776 21.346944 0.133586 0.756233  
2001-10-30 08:24:47 51°18.994 2°48.751 21.34754 0.133586 0.756259  
2001-10-30 08:24:52 51°19.005 2°48.726 21.056136 0.133586 0.756259  
2001-10-30 08:24:57 51°19.015 2°48.701 21.05785 0.133586 0.756271  
2001-10-30 08:25:02 51°19.026 2°48.677 21.485286 0.133586 0.756284  
2001-10-30 08:25:07 51°19.037 2°48.652 21.485286 0.133586 0.756284  
2001-10-30 08:25:12 51°19.048 2°48.627 21.411072 0.133586 0.756296  
2001-10-30 08:25:17 51°19.058 2°48.603 20.866929 0.133586 0.756296  
2001-10-30 08:25:22 51°19.069 2°48.578 21.446484 0.133586 0.756296  
2001-10-30 08:25:27 51°19.08 2°48.554 21.252672 0.133586 0.756334  
2001-10-30 08:25:32 51°19.091 2°48.53 21.318036 0.133586 0.756321  
2001-10-30 08:25:37 51°19.101 2°48.505 21.318036 0.133586 0.756321  
2001-10-30 08:25:42 51°19.112 2°48.48 21.871362 0.133586 0.756309  
2001-10-30 08:25:47 51°19.122 2°48.455 21.225356 0.133586 0.756371  
2001-10-30 08:25:52 51°19.133 2°48.431 21.688187 0.133586 0.756334  
2001-10-30 08:25:57 51°19.143 2°48.405 21.263205 0.133586 0.756346  
2001-10-30 08:26:02 51°19.153 2°48.381 21.236689 0.133586 0.756334  
2001-10-30 08:26:07 51°19.164 2°48.355 21.236689 0.133586 0.756334  
2001-10-30 08:26:12 51°19.175 2°48.331 21.684947 0.133586 0.756346  
2001-10-30 08:26:17 51°19.185 2°48.306 21.495469 0.133586 0.756359  
2001-10-30 08:26:22 51°19.196 2°48.282 21.365681 0.133586 0.756359  
2001-10-30 08:26:27 51°19.206 2°48.257 21.529849 0.133586 0.756371  
2001-10-30 08:26:32 51°19.217 2°48.232 21.497767 0.133586 0.756371  
2001-10-30 08:26:37 51°19.227 2°48.207 21.497767 0.133586 0.756371  
2001-10-30 08:26:42 51°19.237 2°48.182 21.498242 0.133586 0.756396  
2001-10-30 08:26:46 51°19.246 2°48.162 21.406074 0.133586 0.756409  
2001-10-30 08:26:52 51°19.258 2°48.132 21.985519 0.133586 0.756409  
2001-10-30 08:26:57 51°19.269 2°48.108 22.054106 0.133586 0.756422  
2001-10-30 08:27:02 51°19.279 2°48.083 21.664319 0.133586 0.756434  
2001-10-30 08:27:07 51°19.289 2°48.058 21.664319 0.133586 0.756434  
2001-10-30 08:27:12 51°19.299 2°48.033 21.864149 0.133586 0.756396  
2001-10-30 08:27:17 51°19.31 2°48.009 20.726093 0.133586 0.756384  
2001-10-30 08:27:22 51°19.32 2°47.983 21.607539 0.133586 0.756409  
2001-10-30 08:27:27 51°19.33 2°47.958 21.381238 0.133586 0.756434  
2001-10-30 08:27:32 51°19.341 2°47.932 21.449537 0.133586 0.756434  
2001-10-30 08:27:37 51°19.351 2°47.907 21.449537 0.133586 0.756434  
2001-10-30 08:27:42 51°19.361 2°47.882 21.647479 0.133586 0.756434  
2001-10-30 08:27:47 51°19.371 2°47.857 21.806977 0.133586 0.756459  
2001-10-30 08:27:52 51°19.382 2°47.832 21.779557 0.133586 0.756459  
2001-10-30 08:27:57 51°19.392 2°47.806 21.71663 0.133488 0.755887  
2001-10-30 08:28:02 51°19.402 2°47.781 21.422574 0.133586 0.756497  
2001-10-30 08:28:07 51°19.413 2°47.757 21.422574 0.133586 0.756497  
2001-10-30 08:28:12 51°19.422 2°47.731 21.912375 0.133586 0.756509  
2001-10-30 08:28:17 51°19.433 2°47.706 21.493488 0.133586 0.756509  
2001-10-30 08:28:22 51°19.443 2°47.681 21.465789 0.133586 0.756534  
2001-10-30 08:28:27 51°19.453 2°47.656 21.529136 0.133586 0.756509  
2001-10-30 08:28:32 51°19.463 2°47.63 21.242573 0.133586 0.756522  
2001-10-30 08:28:37 51°19.474 2°47.605 21.242573 0.133586 0.756522  
2001-10-30 08:28:42 51°19.484 2°47.579 21.237047 0.133488 0.75595  
2001-10-30 08:28:47 51°19.494 2°47.554 21.664754 0.133488 0.755937  
2001-10-30 08:28:52 51°19.504 2°47.529 21.861785 0.133488 0.755925  
2001-10-30 08:28:57 51°19.514 2°47.503 21.442163 0.133488 0.755962  
2001-10-30 08:29:02 51°19.525 2°47.477 21.248378 0.133488 0.75595  
2001-10-30 08:29:06 51°19.533 2°47.457 21.248378 0.133488 0.75595  
2001-10-30 08:29:12 51°19.546 2°47.427 21.731083 0.133488 0.755962  
2001-10-30 08:29:17 51°19.556 2°47.401 21.086745 0.133488 0.756  
2001-10-30 08:29:22 51°19.566 2°47.375 21.022483 0.133488 0.755987  
2001-10-30 08:29:27 51°19.576 2°47.349 21.476886 0.133488 0.755987  
2001-10-30 08:29:32 51°19.587 2°47.324 21.152422 0.133488 0.755987  
2001-10-30 08:29:37 51°19.597 2°47.298 21.152422 0.133488 0.755987  
2001-10-30 08:29:42 51°19.607 2°47.273 21.020529 0.133488 0.756  
2001-10-30 08:29:47 51°19.618 2°47.248 21.384214 0.133488 0.755975  
2001-10-30 08:29:52 51°19.628 2°47.222 20.992884 0.133488 0.756012  
2001-10-30 08:29:57 51°19.638 2°47.197 21.579766 0.133488 0.756038  
2001-10-30 08:30:02 51°19.649 2°47.171 21.584593 0.133488 0.756025  
2001-10-30 08:30:07 51°19.659 2°47.146 21.584593 0.133488 0.756025  
2001-10-30 08:30:12 51°19.67 2°47.121 21.365681 0.133488 0.756012  
2001-10-30 08:30:17 51°19.68 2°47.095 21.423724 0.133488 0.75605  
2001-10-30 08:30:22 51°19.69 2°47.07 20.970057 0.133488 0.756038  
2001-10-30 08:30:27 51°19.701 2°47.044 21.497529 0.133488 0.756038  
2001-10-30 08:30:32 51°19.711 2°47.018 21.853192 0.133488 0.75605  
2001-10-30 08:30:37 51°19.721 2°46.992 21.853192 0.133488 0.75605  
2001-10-30 08:30:42 51°19.731 2°46.967 21.690914 0.133488 0.75605  
2001-10-30 08:30:47 51°19.742 2°46.942 21.630913 0.133488 0.756038  
2001-10-30 08:30:52 51°19.753 2°46.916 21.496697 0.133488 0.756075  
2001-10-30 08:30:57 51°19.763 2°46.89 21.532383 0.133488 0.756075  
2001-10-30 08:31:02 51°19.774 2°46.866 21.437246 0.133488 0.756075  
2001-10-30 08:31:07 51°19.784 2°46.84 21.437246 0.133488 0.756075  
2001-10-30 08:31:12 51°19.794 2°46.815 21.43796 0.133488 0.756088  
2001-10-30 08:31:17 51°19.804 2°46.79 21.312436 0.133488 0.756125  
2001-10-30 08:31:22 51°19.815 2°46.765 21.542322 0.133488 0.7561  
2001-10-30 08:31:27 51°19.825 2°46.74 21.806464 0.133488 0.7561  
2001-10-30 08:31:32 51°19.836 2°46.715 21.158671 0.133488 0.756113  
2001-10-30 08:31:37 51°19.845 2°46.69 21.158671 0.133488 0.756113  
2001-10-30 08:31:42 51°19.856 2°46.665 21.513849 0.133488 0.7561  
2001-10-30 08:31:47 51°19.864 2°46.638 21.706637 0.133488 0.756113  
2001-10-30 08:31:52 51°19.872 2°46.61 21.28852 0.133488 0.756138  
2001-10-30 08:31:57 51°19.879 2°46.582 21.349961 0.133488 0.756163  
2001-10-30 08:32:02 51°19.884 2°46.553 21.946752 0.133488 0.756138  
2001-10-30 08:32:07 51°19.889 2°46.523 21.946752 0.133488 0.756138  
2001-10-30 08:32:12 51°19.894 2°46.494 21.158512 0.133488 0.756163  
2001-10-30 08:32:17 51°19.899 2°46.465 21.263444 0.133488 0.756138  
2001-10-30 08:32:22 51°19.902 2°46.435 21.649654 0.133488 0.756163  
2001-10-30 08:32:27 51°19.907 2°46.406 21.78733 0.133488 0.756138  
2001-10-30 08:32:32 51°19.911 2°46.376 22.299757 0.133488 0.75615  
2001-10-30 08:32:37 51°19.916 2°46.347 22.299757 0.133488 0.75615  
2001-10-30 08:32:42 51°19.922 2°46.317 21.161736 0.133488 0.756163  
2001-10-30 08:32:47 51°19.927 2°46.288 21.752719 0.133488 0.756163  
2001-10-30 08:32:52 51°19.933 2°46.26 22.046559 0.133488 0.756176  
2001-10-30 08:32:57 51°19.94 2°46.231 21.270002 0.133488 0.756176  
2001-10-30 08:33:02 51°19.947 2°46.204 21.477639 0.133488 0.756188  
2001-10-30 08:33:07 51°19.954 2°46.175 21.477639 0.133488 0.756188  
2001-10-30 08:33:12 51°19.962 2°46.148 21.684552 0.133488 0.756226  
2001-10-30 08:33:17 51°19.969 2°46.12 21.566864 0.133488 0.756213  
2001-10-30 08:33:22 51°19.977 2°46.093 22.056504 0.133488 0.756201  
2001-10-30 08:33:27 51°19.985 2°46.065 21.830995 0.133488 0.756213  
2001-10-30 08:33:32 51°19.992 2°46.038 21.406986 0.133488 0.756226  
2001-10-30 08:33:37 51°19.999 2°46.01 21.406986 0.133488 0.756226  
2001-10-30 08:33:42 51°20.007 2°45.982 21.506442 0.133488 0.756213  
2001-10-30 08:33:47 51°20.013 2°45.954 21.636607 0.133488 0.756238  
2001-10-30 08:33:52 51°20.02 2°45.926 21.419996 0.133488 0.756213  
2001-10-30 08:33:57 51°20.026 2°45.897 21.776242 0.133488 0.756238  
2001-10-30 08:34:02 51°20.032 2°45.869 21.484969 0.133488 0.756238  
2001-10-30 08:34:07 51°20.038 2°45.84 21.484969 0.133488 0.756238  
2001-10-30 08:34:12 51°20.043 2°45.811 21.781096 0.133488 0.756238  
2001-10-30 08:34:17 51°20.049 2°45.782 21.556692 0.133488 0.756251  
2001-10-30 08:34:22 51°20.054 2°45.753 21.625337 0.133488 0.756251  
2001-10-30 08:34:27 51°20.06 2°45.724 21.299565 0.133488 0.756288  
2001-10-30 08:34:32 51°20.065 2°45.695 21.395006 0.133488 0.756263  
2001-10-30 08:34:37 51°20.07 2°45.666 21.395006 0.133488 0.756263  
2001-10-30 08:34:42 51°20.076 2°45.637 21.850866 0.133488 0.756251  
2001-10-30 08:34:47 51°20.081 2°45.608 21.207855 0.133488 0.756263  
2001-10-30 08:34:52 51°20.086 2°45.578 21.695773 0.133488 0.756251  
2001-10-30 08:34:57 51°20.092 2°45.548 21.436295 0.133488 0.756263  
2001-10-30 08:35:02 51°20.097 2°45.519 21.437286 0.133488 0.756276  
2001-10-30 08:35:07 51°20.103 2°45.49 21.437286 0.133488 0.756276  
2001-10-30 08:35:12 51°20.109 2°45.461 21.242931 0.133488 0.756263  
2001-10-30 08:35:17 51°20.114 2°45.431 21.608251 0.133488 0.756276  
2001-10-30 08:35:22 51°20.12 2°45.402 21.283553 0.133488 0.756276  
2001-10-30 08:35:27 51°20.126 2°45.373 21.464243 0.133389 0.755716  
2001-10-30 08:35:32 51°20.131 2°45.344 21.477718 0.133488 0.756314  
2001-10-30 08:35:37 51°20.137 2°45.314 21.477718 0.133488 0.756314  
2001-10-30 08:35:42 51°20.142 2°45.285 22.00043 0.133389 0.755716  
2001-10-30 08:35:47 51°20.148 2°45.255 21.224878 0.133389 0.755741  
2001-10-30 08:35:52 51°20.154 2°45.226 21.394054 0.133389 0.755741  
2001-10-30 08:35:57 51°20.159 2°45.196 21.29146 0.133389 0.755754  
2001-10-30 08:36:02 51°20.165 2°45.168 21.385047 0.133488 0.756364  
2001-10-30 08:36:07 51°20.171 2°45.139 21.385047 0.133488 0.756364  
2001-10-30 08:36:12 51°20.176 2°45.11 21.905088 0.133389 0.755754  
2001-10-30 08:36:17 51°20.182 2°45.081 21.161856 0.133389 0.755766  
2001-10-30 08:36:22 51°20.187 2°45.052 21.91466 0.133389 0.755754  
2001-10-30 08:36:27 51°20.193 2°45.023 21.621501 0.133389 0.755779  
2001-10-30 08:36:32 51°20.199 2°44.993 20.843942 0.133389 0.755766  
2001-10-30 08:36:37 51°20.204 2°44.964 20.843942 0.133389 0.755766  
2001-10-30 08:36:42 51°20.21 2°44.935 21.06913 0.133389 0.755791  
2001-10-30 08:36:47 51°20.215 2°44.906 21.005331 0.133389 0.755779  
2001-10-30 08:36:52 51°20.221 2°44.877 20.881117 0.133389 0.755791  
2001-10-30 08:36:57 51°20.226 2°44.847 21.047605 0.133389 0.755791  
2001-10-30 08:37:02 51°20.232 2°44.818 20.984464 0.133389 0.755804  
2001-10-30 08:37:07 51°20.238 2°44.789 20.984464 0.133389 0.755804  
2001-10-30 08:37:12 51°20.243 2°44.76 20.980873 0.133389 0.755829  
2001-10-30 08:37:17 51°20.249 2°44.73 20.822548 0.133389 0.755816  
2001-10-30 08:37:22 51°20.254 2°44.701 20.720125 0.133389 0.755842  
2001-10-30 08:37:27 51°20.26 2°44.672 21.080289 0.133389 0.755842  
2001-10-30 08:37:32 51°20.265 2°44.642 21.212827 0.133389 0.755842  
2001-10-30 08:37:37 51°20.271 2°44.613 21.212827 0.133389 0.755842  
2001-10-30 08:37:42 51°20.277 2°44.584 21.222015 0.133389 0.755829  
2001-10-30 08:37:47 51°20.283 2°44.554 21.38215 0.133389 0.755854  
2001-10-30 08:37:52 51°20.288 2°44.525 21.240943 0.133389 0.755867  
2001-10-30 08:37:57 51°20.294 2°44.495 21.242653 0.133389 0.755854  
2001-10-30 08:38:02 51°20.299 2°44.466 21.553209 0.133389 0.755879  
2001-10-30 08:38:07 51°20.305 2°44.436 21.553209 0.133389 0.755879  
2001-10-30 08:38:12 51°20.31 2°44.407 21.401948 0.133389 0.755867  
2001-10-30 08:38:17 51°20.315 2°44.377 21.720619 0.133389 0.755867  
2001-10-30 08:38:22 51°20.321 2°44.348 21.481165 0.133389 0.755867  
2001-10-30 08:38:27 51°20.326 2°44.319 21.395403 0.133389 0.755892  
2001-10-30 08:38:32 51°20.331 2°44.289 20.908286 0.133389 0.755892  
2001-10-30 08:38:37 51°20.337 2°44.26 20.908286 0.133389 0.755892  
2001-10-30 08:38:42 51°20.342 2°44.23 21.299526 0.133389 0.755904  
2001-10-30 08:38:47 51°20.348 2°44.201 21.175627 0.133389 0.755904  
2001-10-30 08:38:52 51°20.353 2°44.172 21.330943 0.133389 0.755904  
2001-10-30 08:38:57 51°20.358 2°44.142 21.173239 0.133389 0.755917  
2001-10-30 08:39:02 51°20.363 2°44.113 21.403853 0.133389 0.755929  
2001-10-30 08:39:07 51°20.368 2°44.084 21.403853 0.133389 0.755929  
2001-10-30 08:39:12 51°20.373 2°44.054 21.274652 0.133389 0.755917  
2001-10-30 08:39:17 51°20.377 2°44.024 21.499827 0.133389 0.755929  
2001-10-30 08:39:22 51°20.382 2°43.994 21.578143 0.133389 0.755929  
2001-10-30 08:39:27 51°20.386 2°43.965 21.568725 0.133389 0.755954  
2001-10-30 08:39:32 51°20.391 2°43.935 21.708888 0.133389 0.755942  
2001-10-30 08:39:37 51°20.396 2°43.906 21.708888 0.133389 0.755942  
2001-10-30 08:39:42 51°20.401 2°43.876 21.612761 0.133389 0.755942  
2001-10-30 08:39:47 51°20.406 2°43.847 21.417497 0.133389 0.755954  
2001-10-30 08:39:52 51°20.41 2°43.817 21.86612 0.133389 0.755954  
2001-10-30 08:39:57 51°20.415 2°43.788 21.283553 0.133389 0.755992  
2001-10-30 08:40:02 51°20.42 2°43.759 21.193175 0.133389 0.75598  
2001-10-30 08:40:07 51°20.425 2°43.73 21.193175 0.133389 0.75598  
2001-10-30 08:40:12 51°20.429 2°43.7 21.262132 0.133389 0.755967  
2001-10-30 08:40:17 51°20.434 2°43.671 21.428166 0.133389 0.75598  
2001-10-30 08:40:22 51°20.439 2°43.642 21.298771 0.133389 0.75598  
2001-10-30 08:40:27 51°20.444 2°43.613 21.129886 0.133389 0.755992  
2001-10-30 08:40:32 51°20.449 2°43.583 21.519671 0.133389 0.756005  
2001-10-30 08:40:37 51°20.454 2°43.555 21.519671 0.133389 0.756005  
2001-10-30 08:40:42 51°20.459 2°43.525 21.263205 0.133389 0.756017  
2001-10-30 08:40:47 51°20.464 2°43.497 21.491428 0.133389 0.756017  
2001-10-30 08:40:52 51°20.468 2°43.467 21.265272 0.133389 0.756042  
2001-10-30 08:40:57 51°20.473 2°43.439 21.431774 0.133389 0.75603  
2001-10-30 08:41:02 51°20.477 2°43.41 21.237524 0.133389 0.756005  
2001-10-30 08:41:07 51°20.482 2°43.381 21.237524 0.133389 0.756005  
2001-10-30 08:41:12 51°20.485 2°43.352 21.500896 0.133389 0.756042  
2001-10-30 08:41:17 51°20.49 2°43.323 21.669496 0.133389 0.75603  
2001-10-30 08:41:22 51°20.493 2°43.293 21.305087 0.133389 0.756042  
2001-10-30 08:41:27 51°20.497 2°43.264 21.699368 0.133389 0.756042  
2001-10-30 08:41:32 51°20.502 2°43.235 21.768784 0.133389 0.756042  
2001-10-30 08:41:37 51°20.505 2°43.205 21.768784 0.133389 0.756042  
2001-10-30 08:41:42 51°20.51 2°43.176 21.63981 0.133389 0.756042  
2001-10-30 08:41:47 51°20.514 2°43.146 21.253665 0.133389 0.75608  
2001-10-30 08:41:52 51°20.518 2°43.118 21.867854 0.133389 0.756055  
2001-10-30 08:41:57 51°20.522 2°43.089 21.604256 0.133389 0.756118  
2001-10-30 08:42:02 51°20.526 2°43.059 21.580755 0.133389 0.75608